Regional Weather Roundup
Issued by NWS

Home | Current Version | Previous Version | Text Only | Print | Product List | Glossary On
Versions: 1 2 3 4 5 6 7 8 9 10 11 12 13 14 15 16 17 18 19 20 21 22 23 24 25 26 27 28 29 30 31 32 33 34 35 36 37 38 39 40 41 42 43 44 45 46 47 48 49 50
000
ASUS45 KBOI 010810
RWRID
WEATHER ROUNDUP FOR IDAHO
NATIONAL WEATHER SERVICE BOISE ID
200 AM MDT FRI AUG 01 2014

NOTE: "FAIR" INDICATES FEW OR NO CLOUDS BELOW 12000 FEET
WITH NO SIGNIFICANT WEATHER AND/OR OBSTRUCTIONS TO VISIBILITY

IDZ012-014-010900-
SOUTHWEST IDAHO


CITY           SKY/WX    TMP DP  RH WIND       PRES   REMARKS
BOISE          MOCLDY    75  48  38 E5        30.06F
CALDWELL       MOCLDY    68  48  49 S3        30.07S
MOUNTAIN HOME  PTCLDY    71  49  45 S10       30.06R
$$

IDZ016-017-010900-
SOUTHCENTRAL IDAHO


CITY           SKY/WX    TMP DP  RH WIND       PRES   REMARKS
BURLEY         MOCLDY    65  49  56 CALM      30.13F
JEROME         MOCLDY    68  49  50 E8        30.14R
TWIN FALLS     MOCLDY    67  43  41 S9        30.14F
$$

IDZ019>023-010900-
SOUTHEAST IDAHO


CITY           SKY/WX    TMP DP  RH WIND       PRES   REMARKS
IDAHO FALLS    MOCLDY    57  48  72 N6        30.18F
POCATELLO      CLEAR     67  51  56 SE7       30.15F
REXBURG        PTCLDY    60  48  64 E7        30.19S
$$

IDZ006-010-011-018-031-032-010900-
CENTRAL IDAHO MOUNTAINS


CITY           SKY/WX    TMP DP  RH WIND       PRES   REMARKS
MCCALL         MOCLDY    64  48  56 N3        30.22F
HAILEY         CLOUDY    63  52  67 NW10      30.24S
STANLEY          N/A     53  45  74 CALM      30.34S
SALMON         CLOUDY    64  48  55 CALM      30.16S
CHALLIS        CLOUDY    64  47  53 S3        30.24S
$$

IDZ002-004-006-007-026-010900-
NORTHERN IDAHO


CITY           SKY/WX    TMP DP  RH WIND       PRES   REMARKS
LEWISTON       CLOUDY    82  45  27 CALM      29.98R
LOWELL           N/A     66  55  67 CALM      30.05R
COEUR D`ALENE  PTCLDY    68  48  49 S3        30.03R
MULLAN PASS    PTCLDY    68  30  24 NW6       30.29R
$$



USA.gov is the U.S. government's official web portal to all federal, state and local government web resources and services.